Location: Unspecified
(0.0000°N, 0.0000°E)
Time: 08:54:11
(UTC+00:00)

Vanguard 2 - Pass Details

Date: 10 December 2017
Orbit: 553 x 2939 km, 32.9° (Epoch: 19 July)

Event Time Altitude Azimuth Distance (km) Brightness Sun altitude
Rises 00:32:18 0° 306° (NW) 3,526 - -65.1°
Reaches altitude 10° 00:34:24 10° 307° (NW) 2,794 - -64.9°
Maximum altitude 00:41:20 87° 36° (NE) 1,430 - -64.2°
Exits shadow 00:50:08 20° 124° (SE) 3,651 11.1 -63.2°
Drops below altitude 10° 00:53:27 10° 124° (SE) 4,671 11.7 -62.7°
Sets 00:57:59 0° 125° (SE) 6,024 12.5 -62.1°
